Terminal Aerodrome Forecast
Issued by NWS

Home | Current Version | Previous Version | Text Only | Print | Product List | Glossary On
Versions: 1 2 3 4 5 6 7 8 9 10 11 12 13
480
FTUS42 KTBW 231734
TAFPIE
TAF
KPIE 231734Z 2318/2418 08010G18KT P6SM VCSH SCT025 BKN050
     FM240000 07013G19KT P6SM SCT025 SCT050
     FM240700 08011KT P6SM FEW020 SCT250
     FM241400 08014G19KT P6SM FEW020 SCT250=

USA.gov is the U.S. government's official web portal to all federal, state and local government web resources and services.